This is the latest recevied weather packets stored in our database for station/object N2OCK. If no packets are shown the sender has not sent any weather packets the latest 10 day(s).
| Time | Temp. | Humidity | Pressure | Rain* | Wind** | Luminosity | Snow |
|---|---|---|---|---|---|---|---|
| 1777810261 | 7.22° C | 63% | 1010.9 hPa | 0 mm | - | 135 W/m² | - |
| 1777809956 | 7.22° C | 63% | 1010.7 hPa | 0 mm | - | 150 W/m² | - |
| 1777809655 | 7.78° C | 63% | 1010.9 hPa | 0 mm | - | 145 W/m² | - |
| 1777809352 | 7.78° C | 63% | 1011.2 hPa | 0 mm | - | 145 W/m² | - |
| 1777809049 | 7.78° C | 62% | 1011.1 hPa | 0 mm | - | 279 W/m² | - |
| 1777808747 | 6.67° C | 64% | 1010.6 hPa | 0 mm | - | 194 W/m² | - |
| 1777808443 | 6.67° C | 64% | 1010.9 hPa | 0 mm | - | 79 W/m² | - |
| 1777808141 | 7.22° C | 64% | 1010.7 hPa | 0 mm | - | 76 W/m² | - |
| 1777807839 | 7.22° C | 64% | 1010.8 hPa | 0 mm | - | 82 W/m² | - |
| 1777807537 | 7.22° C | 63% | 1010.8 hPa | 0 mm | - | 99 W/m² | - |
| 1777807233 | 6.67° C | 64% | 1010.6 hPa | 0 mm | - | 160 W/m² | - |
| 1777806930 | 6.67° C | 65% | 1010.7 hPa | 0 mm | - | 60 W/m² | - |
| 1777806626 | 6.67° C | 64% | 1010.8 hPa | 0 mm | - | 58 W/m² | - |
| 1777806322 | 6.67° C | 64% | 1010.7 hPa | 0 mm | - | 54 W/m² | - |
| 1777806019 | 6.67° C | 64% | 1010.7 hPa | 0 mm | - | 45 W/m² | - |
| 1777805715 | 6.67° C | 64% | 1010.6 hPa | 0 mm | - | 36 W/m² | - |
| 1777805413 | 6.67° C | 64% | 1010.5 hPa | 0 mm | - | 31 W/m² | - |
| 1777805111 | 6.67° C | 64% | 1010.4 hPa | 0 mm | - | 37 W/m² | - |
| 1777804809 | 6.67° C | 64% | 1010.3 hPa | 0 mm | - | 39 W/m² | - |
| 1777804506 | 6.11° C | 65% | 1010.3 hPa | 0 mm | - | 30 W/m² | - |
| 1777804203 | 6.11° C | 64% | 1010.2 hPa | 0 mm | - | 27 W/m² | - |
| 1777803901 | 6.11° C | 64% | 1010.1 hPa | 0 mm | - | 25 W/m² | - |
| 1777803596 | 6.11° C | 64% | 1010.2 hPa | 0 mm | - | 21 W/m² | - |
| 1777803293 | 6.11° C | 64% | 1010.1 hPa | 0 mm | - | 16 W/m² | - |
| 1777802990 | 6.11° C | 64% | 1010 hPa | 0 mm | - | 13 W/m² | - |
* Rain latest hour (hover to see other rain measurements)
** Current wind speed in m/s (hover to see current wind gust speed)